Flag for U.S.A. Weather past 2 weeks in Wilmington, North Carolina, U.S.A.

Now
83 °F

Scattered clouds.


Feels Like: 85 °F
Forecast: 70 / 81 °F
Wind: 12 mph from Southeast

Location: New Hanover International Airport

Current Time: May 27, 2015 at 2:59:44 PM

Latest Report: May 27, 2015 at 1:53 PM


Visibility: 10 mi

Pressure: 30.25 "Hg

Humidity: 59%

Dew point: 67 °F

Location of WilmingtonLocation

Historic Weather in Wilmington — Graph

°F

Wilmington temperature yesterday

Maximum temperature yesterday: 83 °F (at 12:53 PM)
Minimum temperature yesterday: 65 °F (at 3:53 AM)
Average temperature yesterday: 75 °F

Past Weeks' High & Low Weather Summary

 TemperatureHumidityPressure
High90 °F (May 19, 3:53 PM)97% (May 19, 10:53 PM)30.40 "Hg (May 19, 10:53 PM)
Low54 °F (May 23, 4:53 AM)27% (May 23, 2:53 PM)29.74 "Hg (May 21, 3:53 PM)
Average72 °F72%30.18 "Hg
* Reported May 12 1:53 PM — May 27 1:53 PM, Wilmington, Weather by CustomWeather, © 2015

Note: Actual official high and low records may vary slightly from our data, if they occured in-between our weather recording intervals... More about our weather records

Advertising

Wilmington weather history for previous 24 hours

 ConditionsComfort  
Time TempWeatherWind HumidityBarometerVisibility
1:53 PM
Wed, May 27
83 °FScattered clouds.12 mph59%30.25 "Hg10 mi
12:53 PM81 °FBroken clouds.10 mph65%30.26 "Hg10 mi
11:53 AM81 °FPartly sunny.8 mph62%30.26 "Hg10 mi
10:53 AM82 °FScattered clouds.6 mph60%30.27 "Hg10 mi
10:01 AM79 °FPartly sunny.7 mph67%30.28 "Hg10 mi
8:53 AM79 °FPassing clouds.6 mph67%30.27 "Hg10 mi
7:53 AM77 °FSunny.7 mph77%30.25 "Hg10 mi
6:53 AM73 °FClear.3 mph88%30.24 "Hg10 mi
5:53 AM73 °FPassing clouds.5 mph90%30.23 "Hg10 mi
4:53 AM74 °FMostly cloudy.5 mph88%30.22 "Hg10 mi
3:53 AM74 °FMostly cloudy.5 mph88%30.22 "Hg10 mi
2:53 AM73 °FPassing clouds.5 mph90%30.23 "Hg10 mi
1:53 AM74 °FOvercast.7 mph88%30.25 "Hg10 mi
12:53 AM75 °FOvercast.8 mph82%30.26 "Hg10 mi
11:53 PM
Tue, May 26
75 °FPassing clouds.9 mph82%30.27 "Hg10 mi
10:53 PM76 °FOvercast.9 mph80%30.27 "Hg10 mi
9:53 PM76 °FMostly cloudy.8 mph80%30.25 "Hg10 mi
8:53 PM76 °FOvercast.9 mph80%30.25 "Hg10 mi
7:53 PM77 °FCloudy.12 mph77%30.25 "Hg10 mi
6:53 PM77 °FMore clouds than sun.13 mph77%30.24 "Hg10 mi
5:53 PM78 °FMostly cloudy.12 mph76%30.24 "Hg10 mi
4:53 PM79 °FPartly sunny.12 mph74%30.24 "Hg10 mi
3:53 PM80 °FBroken clouds.12 mph71%30.26 "Hg10 mi
2:53 PM80 °FMostly cloudy.12 mph71%30.27 "Hg10 mi
Weather by CustomWeather, © 2015

See weather overviewHow to use our weather pages